Location: Greenwich
(51.4790°N, 0.0090°E)
Time: 13:25:22
(UTC+01:00)

Altair - Pass Details

Date: 26 June 2025
Orbit: 1502 x 1682 km, 47.2° (Epoch: 19 July)

Event Time Altitude Azimuth Distance (km) Brightness Sun altitude
Rises 23:13:00 0° 242° (WSW) 4,629 10.0 -11.4°
Reaches altitude 10° 23:16:03 10° 239° (WSW) 3,653 9.4 -11.6°
Maximum altitude 23:24:59 60° 162° (SSE) 1,708 7.4 -12.2°
Drops below altitude 10° 23:34:11 10° 86° (E) 3,748 9.4 -12.7°
Sets 23:37:20 0° 83° (E) 4,757 9.9 -12.9°
